Farmington, NM

4:28 AM MDT on May 25, 2017 (GMT -0600)
Four Corners Regional

Weather History for KFMN - November, 2012

Change the Weather History Date:

Thursday, November 8, 2012

  Actual Average Record
Temperature  
Mean Temperature 52 °F -  
Max Temperature 69 °F 53 °F 70 °F (1983)
Min Temperature 34 °F 29 °F 17 °F (2000)
Degree Days  
Heating Degree Days 14    
Growing Degree Days 2 (Base 50)    
Moisture  
Dew Point 19 °F    
Average Humidity 31    
Maximum Humidity 63    
Minimum Humidity 7    
Precipitation  
Precipitation 0.02 in - - ()
Sea Level Pressure  
Sea Level Pressure 29.96 in    
Wind  
Wind Speed 6 mph (ENE)    
Max Wind Speed 9 mph    
Max Gust Speed -    
Visibility 10 miles    
Events Rain    
Averages and records for this station are not official NWS values.
T = Trace of Precipitation, MM = Missing Value Source: NWS Daily Summary

Daily Weather History Graph

Daily Weather History Graph

Search for Another Location

Airport or City:

Trip Planner

Search our weather history database for the weather conditions in past years. The results will help you decide how hot, cold, wet, or windy it might be!

Date:

Astronomy

Nov. 08, 2012 Rise Set
Actual Time 6:44 AM MST 5:08 PM MST
Civil Twilight 6:17 AM MST 5:35 PM MST
Nautical Twilight 5:46 AM MST 6:06 PM MST
Astronomical Twilight 5:15 AM MST 6:37 PM MST
Moon 12:51 AM MST (11/8) 1:43 PM MST (11/8)
Length of Visible Light 11h 18m
Length of Day
10h 24m
Waning Crescent, 32% of the Moon is Illuminated
Nov 8
Waning Crescent
Nov 13
New
Nov 20
First Quarter
Nov 28
Full
Dec 6
Last Quarter

Hourly Weather History & Observations

Time (MST) Temp. Windchill Dew Point Humidity Pressure Visibility Wind Dir Wind Speed Gust Speed Precip Events Conditions
1:53 AM 37.9 °F 32.1 °F 17.1 °F 43% 30.02 in 10.0 mi East 8.1 mph - N/A   Clear
2:53 AM 35.1 °F 29.3 °F 16.0 °F 46% 30.02 in 10.0 mi ENE 6.9 mph - N/A   Clear
3:53 AM 36.0 °F 29.0 °F 17.1 °F 46% 30.01 in 10.0 mi East 9.2 mph - N/A   Clear
4:53 AM 34.0 °F 26.6 °F 17.1 °F 50% 30.02 in 10.0 mi East 9.2 mph - N/A   Clear
5:53 AM 36.0 °F 29.0 °F 17.1 °F 46% 30.02 in 10.0 mi East 9.2 mph - N/A   Clear
6:53 AM 35.1 °F 28.6 °F 18.0 °F 50% 30.06 in 10.0 mi East 8.1 mph - N/A   Clear
7:53 AM 37.9 °F 32.1 °F 19.0 °F 47% 30.08 in 10.0 mi East 8.1 mph - N/A   Clear
8:53 AM 41.0 °F 37.1 °F 19.0 °F 41% 30.08 in 10.0 mi East 5.8 mph - N/A   Clear
10:53 AM 48.9 °F - 19.9 °F 32% 30.04 in 10.0 mi Calm Calm - N/A   Overcast
11:53 AM 54.0 °F - 19.9 °F 26% 29.98 in 10.0 mi ENE 3.5 mph - N/A   Partly Cloudy
12:53 PM 62.1 °F - 21.0 °F 21% 29.93 in 10.0 mi Calm Calm - N/A   Clear
1:53 PM 66.0 °F - 19.0 °F 17% 29.90 in 10.0 mi West 6.9 mph - N/A   Clear
2:53 PM 66.9 °F - 15.1 °F 14% 29.88 in 10.0 mi West 4.6 mph - N/A   Clear
3:53 PM 66.9 °F - 12.9 °F 12% 29.87 in 10.0 mi West 4.6 mph - N/A   Clear
4:53 PM 61.0 °F - 12.9 °F 15% 29.88 in 10.0 mi NNE 3.5 mph - N/A   Clear
5:53 PM 53.1 °F - 12.0 °F 20% 29.89 in 10.0 mi NNE 4.6 mph - N/A   Clear
6:53 PM 48.0 °F - 10.9 °F 22% 29.92 in 10.0 mi Calm Calm - N/A   Clear
7:53 PM 48.9 °F - 12.9 °F 24% 29.90 in 10.0 mi NE 3.5 mph - N/A   Clear
8:53 PM 52.0 °F - 12.9 °F 21% 29.89 in 10.0 mi East 5.8 mph - N/A   Scattered Clouds
9:53 PM 51.1 °F - 21.0 °F 31% 29.90 in 10.0 mi Variable 5.8 mph - 0.00 in Rain Light Rain
10:53 PM 50.0 °F - 37.9 °F 63% 29.88 in 10.0 mi North 4.6 mph - 0.02 in Rain Light Rain
11:53 PM 53.1 °F - 37.0 °F 55% 29.86 in 10.0 mi SSW 4.6 mph - 0.00 in   Overcast